Location: Newark
(39.5222°N, 119.8081°W)
Time: 05:07:39
(UTC+00:00)

Envisat - Visible Passes

Search period start: 14 December 2019 00:00
Search period end: 24 December 2019 00:00
Orbit: 764 x 766 km, 98.1° (Epoch: 13 December)

Date Brightness Start Highest point End Pass type
(mag) Time Alt. Az. Time Alt. Az. Time Alt. Az.
14 Dec 2.9 01:45:56 10° SSE 01:50:58 71° ENE 01:56:03 10° N visible
14 Dec 6.1 03:28:25 10° WSW 03:30:29 12° W 03:32:32 10° WNW visible
14 Dec 5.4 13:56:19 10° NE 14:00:34 26° E 14:04:47 10° SSE visible
15 Dec 3.7 01:09:56 10° SE 01:14:23 32° ENE 01:18:51 10° N visible
15 Dec 5.0 02:49:01 10° SSW 02:53:22 28° W 02:57:44 10° NW visible
15 Dec 6.3 13:21:57 10° ENE 13:23:26 11° E 13:24:54 10° ESE visible
16 Dec 3.4 02:11:25 10° S 02:16:27 65° W 02:21:31 10° NNW visible
16 Dec 4.2 14:21:18 10° NNE 14:26:11 46° E 14:31:03 10° S visible
17 Dec 3.0 01:34:47 10° SSE 01:39:43 56° ENE 01:44:42 10° N visible
17 Dec 5.8 03:16:00 10° SW 03:19:04 16° W 03:22:10 10° NW visible
17 Dec 5.7 13:45:25 10° NE 13:49:12 21° E 13:52:57 10° SE visible
18 Dec 4.5 02:37:22 10° SSW 02:42:01 36° W 02:46:42 10° NNW visible
19 Dec 3.0 02:00:05 10° SSE 02:05:10 83° W 02:10:16 10° NNW visible
19 Dec 4.7 14:10:11 10° NNE 14:14:53 36° E 14:19:31 10° SSE visible
20 Dec 3.3 01:23:43 10° SE 01:28:30 44° ENE 01:33:17 10° N visible
20 Dec 5.5 03:03:57 10° SW 03:07:41 21° W 03:11:26 10° NW visible
20 Dec 6.0 13:34:42 10° NE 13:37:49 16° E 13:40:55 10° SE visible
21 Dec 4.1 02:25:50 10° S 02:30:41 46° W 02:35:35 10° NNW visible
21 Dec 3.5 14:35:22 10° NNE 14:40:26 66° ESE 14:45:28 10° S visible
22 Dec 2.9 01:48:50 10° SSE 01:53:53 78° ENE 01:58:59 10° N visible
22 Dec 6.2 03:32:03 10° WSW 03:33:27 11° W 03:34:51 10° WNW visible
22 Dec 5.2 13:59:07 10° NE 14:03:31 29° E 14:07:53 10° SSE visible
23 Dec 3.6 01:12:43 10° SE 01:17:17 35° ENE 01:21:51 10° N visible
23 Dec 5.1 02:52:07 10° SSW 02:56:19 26° W 03:00:32 10° NW visible
23 Dec 6.2 13:24:18 10° ENE 13:26:24 12° E 13:28:30 10° ESE visible
